Regional Weather Roundup
Issued by NWS Huntsville, AL

Home | Current Version | Previous Version | Text Only | Print | Product List | Glossary On
Versions: 1 2 3 4 5 6 7 8 9 10 11 12 13 14 15 16 17 18 19 20 21 22 23 24 25 26 27 28 29 30 31 32 33 34 35 36 37 38 39 40 41 42 43 44 45 46 47 48 49 50
000
ASUS44 KHUN 030710
RWRHUN

WEATHER ROUNDUP FOR THE TENNESSEE VALLEY
NATIONAL WEATHER SERVICE HUNTSVILLE AL
200 AM CDT WED JUN 03 2015

ALZ001>004-030800-
NORTHWEST ALABAMA

CITY           SKY/WX    TMP DP  RH WIND       PRES   REMARKS
BANKHEAD NF      N/A     59  58  97 CALM        N/A
SHOALS AIRPORT CLOUDY    63  58  83 NE6       30.01F
$$

ALZ005>007-016-030800-
NORTH CENTRAL ALABAMA

CITY           SKY/WX    TMP DP  RH WIND       PRES   REMARKS
DECATUR AP     MOCLDY    62  60  93 N3        30.00F
HUNTSVILLE AP  MOCLDY    65  60  84 N5        29.99F
HUN NWS/UAH      N/A     63  58  83 NE3         N/A
MERIDIANVILLE  PTCLDY    61  55  82 CALM      30.00F
REDSTONE ARSN  PTCLDY    63  61  91 NE8       29.98F
VINEMONT AP    FAIR      58  58  97 CALM      30.01F FOG
$$

ALZ008>010-030800-
NORTHEAST ALABAMA

CITY           SKY/WX    TMP DP  RH WIND       PRES   REMARKS
ALBERTVILLE    PTCLDY    61  61 100 CALM      29.99S
FORT PAYNE     CLEAR     59  55  88 CALM      29.98S
SCOTTSBORO HCN   N/A     61 N/A N/A MISG        N/A
VALLEY HEAD      N/A     59 N/A N/A MISG        N/A
$$

TNZ076-096-097-030800-
SOUTHEASTERN MIDDLE TENNESSEE

CITY           SKY/WX    TMP DP  RH WIND       PRES   REMARKS
TULLAHOMA      CLOUDY    63  59  88 N5        30.02F
WINCHESTER     MOCLDY    63  61  94 CALM      30.01S
$$

...SURROUNDING SITES...

CITY           SKY/WX    TMP DP  RH WIND       PRES   REMARKS
ATLANTA        PTCLDY    68  63  84 E7        29.96F
ANNISTON       CLOUDY    67  63  87 CALM      29.97F
BIRMINGHAM     MOCLDY    64  62  93 CALM      29.99F
CHATTANOOGA    PTCLDY    65  61  87 N5        29.99S
CORINTH        FOG       61  59  94 CALM      30.00F VSB 1/2
DALTON         MOCLDY    61  61 100 CALM      29.98S
GADSDEN        CLEAR    N/A N/A N/A CALM      29.96F
GOLDEN TRNGL   CLEAR     63  59  88 CALM      29.99S
HALEYVILLE     FAIR      59  59 100 CALM      30.02F FOG
JACKSON TN     PTCLDY    56  55  97 CALM      30.01F FOG
LEWISBURG      CLOUDY    61  59  93 CALM      30.01F
MEMPHIS        CLEAR     64  60  87 NE5       30.01S
NASHVILLE      CLOUDY    62  58  86 NE7       30.03F
OXFORD MS      FAIR      57  57 100 CALM      30.02F
ROME           PTCLDY    62  60  93 CALM      29.97F
SAVANNAH       CLEAR     57  32  38 CALM      30.01F
TUPELO         CLEAR     61  58  90 NE6       30.00F
TUSCALOOSA     CLEAR     65  62  90 N3        29.97F
$$

...GULF COAST WEATHER...

CITY           SKY/WX    TMP DP  RH WIND       PRES   REMARKS
GULFPORT       MOCLDY    73  70  90 W3        29.92F
PASCAGOULA     CLOUDY    73  71  93 NE3       29.93F
MOBILE         CLOUDY    72  69  90 SE7       29.95F
GULF SHORES    PTSUNNY   71  70  98 CALM      29.93S
PENSACOLA      CLEAR     72  71  97 CALM      29.92F
DESTIN         CLOUDY    74  69  85 E12       29.93F
PANAMA CITY    DRIZZLE   77  70  78 S8        29.94S
APPALACHICOLA  CLEAR     80  68  66 S8        29.94F
$$



USA.gov is the U.S. government's official web portal to all federal, state and local government web resources and services.